| time (UTC) | temp C | wind direction | speed KPH | gust KPH | rain 1hr cm | rain 24hr cm | rain mn cm | humidity % | barometer mb |
| 20260504205714 | 25 | 316 | 4.8 | 16.1 | 0.03 | 0.03 | 0.03 | 35 | 1001.7 |
| 20260504205003 | 25 | 339 | 4.8 | 17.7 | 0.03 | 0.03 | 0.03 | 34 | 1001.6 |
| 20260504204503 | 26 | 324 | 6.4 | 20.9 | 0.03 | 0.03 | 0.03 | 36 | 1001.6 |
| 20260504204003 | 26 | 317 | 6.4 | 20.9 | 0.00 | 0.00 | 0.00 | 32 | 1001.6 |
| 20260504203503 | 26 | 335 | 6.4 | 14.5 | 0.00 | 0.00 | 0.00 | 35 | 1001.6 |
| 20260504203003 | 26 | 359 | 8.0 | 19.3 | 0.00 | 0.00 | 0.00 | 37 | 1001.5 |
| 20260504202504 | 26 | 354 | 6.4 | 19.3 | 0.00 | 0.00 | 0.00 | 38 | 1001.5 |
| 20260504202212 | 26 | 350 | 6.4 | 19.3 | 0.00 | 0.00 | 0.00 | 37 | 1001.5 |
| 20260504201503 | 26 | 338 | 6.4 | 17.7 | 0.00 | 0.00 | 0.00 | 35 | 1001.6 |
| 20260504201004 | 26 | 347 | 6.4 | 17.7 | 0.00 | 0.00 | 0.00 | 35 | 1001.5 |
| 20260504200713 | 26 | 1 | 8.0 | 17.7 | 0.00 | 0.00 | 0.00 | 32 | 1001.5 |
| 20260504200212 | 26 | 348 | 6.4 | 17.7 | 0.00 | 0.00 | 0.00 | 33 | 1001.3 |
| 20260504195713 | 27 | 320 | 6.4 | 17.7 | 0.00 | 0.00 | 0.00 | 34 | 1001.3 |
| 20260504195003 | 26 | 328 | 4.8 | 16.1 | 0.00 | 0.00 | 0.00 | 35 | 1001.5 |
| 20260504194503 | 26 | 316 | 6.4 | 16.1 | 0.00 | 0.00 | 0.00 | 34 | 1001.3 |
| 20260504194003 | 26 | 314 | 6.4 | 20.9 | 0.00 | 0.00 | 0.00 | 34 | 1001.2 |
| 20260504193503 | 26 | 342 | 6.4 | 20.9 | 0.00 | 0.00 | 0.00 | 34 | 1001.2 |
| 20260504193003 | 26 | 338 | 6.4 | 19.3 | 0.00 | 0.00 | 0.00 | 35 | 1001.2 |
| 20260504192504 | 27 | 306 | 6.4 | 22.5 | 0.00 | 0.00 | 0.00 | 34 | 1001.1 |
| 20260504192003 | 27 | 301 | 6.4 | 22.5 | 0.00 | 0.00 | 0.00 | 37 | 1001.1 |
| 20260504191503 | 27 | 317 | 4.8 | 12.9 | 0.00 | 0.00 | 0.00 | 35 | 1001.1 |
| 20260504191003 | 27 | 307 | 6.4 | 17.7 | 0.00 | 0.00 | 0.00 | 35 | 1001.0 |
| 20260504190504 | 27 | 286 | 8.0 | 22.5 | 0.00 | 0.00 | 0.00 | 31 | 1001.1 |
| 20260504190214 | 27 | 295 | 8.0 | 22.5 | 0.00 | 0.00 | 0.00 | 33 | 1000.8 |
| 20260504185713 | 27 | 322 | 6.4 | 16.1 | 0.00 | 0.00 | 0.00 | 32 | 1001.0 |
| 20260504185003 | 27 | 333 | 6.4 | 24.1 | 0.00 | 0.00 | 0.00 | 34 | 1000.8 |
| 20260504184503 | 27 | 338 | 6.4 | 24.1 | 0.00 | 0.00 | 0.00 | 31 | 1000.8 |
| 20260504184214 | 27 | 326 | 6.4 | 17.7 | 0.00 | 0.00 | 0.00 | 32 | 1000.8 |
| 20260504183503 | 27 | 312 | 6.4 | 19.3 | 0.00 | 0.00 | 0.00 | 31 | 1000.7 |
| 20260504183003 | 27 | 295 | 6.4 | 27.4 | 0.00 | 0.00 | 0.00 | 29 | 1000.6 |
| 20260504182503 | 27 | 273 | 8.0 | 27.4 | 0.00 | 0.00 | 0.00 | 29 | 1000.7 |
| 20260504182003 | 27 | 281 | 6.4 | 22.5 | 0.00 | 0.00 | 0.00 | 28 | 1000.7 |
| 20260504181503 | 27 | 277 | 4.8 | 17.7 | 0.00 | 0.00 | 0.00 | 32 | 1000.7 |
| 20260504181003 | 27 | 275 | 6.4 | 19.3 | 0.00 | 0.00 | 0.00 | 35 | 1000.7 |
| 20260504180713 | 27 | 286 | 8.0 | 19.3 | 0.00 | 0.00 | 0.00 | 33 | 1000.8 |
| 20260504180003 | 27 | 300 | 6.4 | 17.7 | 0.00 | 0.00 | 0.00 | 33 | 1001.0 |
| 20260504175504 | 26 | 300 | 6.4 | 17.7 | 0.00 | 0.00 | 0.00 | 34 | 1001.0 |
| 20260504175004 | 27 | 297 | 6.4 | 17.7 | 0.00 | 0.00 | 0.00 | 29 | 1001.0 |
| 20260504174503 | 27 | 289 | 6.4 | 14.5 | 0.00 | 0.00 | 0.00 | 31 | 1001.0 |
| 20260504174003 | 26 | 292 | 6.4 | 22.5 | 0.00 | 0.00 | 0.00 | 32 | 1001.1 |
| 20260504173503 | 26 | 289 | 8.0 | 22.5 | 0.00 | 0.00 | 0.00 | 32 | 1001.1 |
| 20260504173003 | 26 | 279 | 6.4 | 22.5 | 0.00 | 0.00 | 0.00 | 36 | 1001.1 |
| 20260504172503 | 26 | 268 | 6.4 | 22.5 | 0.00 | 0.00 | 0.00 | 33 | 1001.1 |
| 20260504172003 | 26 | 272 | 8.0 | 24.1 | 0.00 | 0.00 | 0.00 | 32 | 1001.2 |
| 20260504171503 | 26 | 269 | 6.4 | 24.1 | 0.00 | 0.00 | 0.00 | 34 | 1001.0 |
| 20260504171003 | 26 | 279 | 4.8 | 17.7 | 0.00 | 0.00 | 0.00 | 33 | 1001.1 |
| 20260504170503 | 26 | 281 | 6.4 | 16.1 | 0.00 | 0.00 | 0.00 | 32 | 1001.1 |
| 20260504151003 | 20 | 256 | 4.8 | 12.9 | 0.00 | 0.00 | 0.00 | 48 | 1001.4 |
| 20260504150503 | 20 | 243 | 6.4 | 12.9 | 0.00 | 0.00 | 0.00 | 45 | 1001.5 |
| 20260504150212 | 20 | 247 | 4.8 | 12.9 | 0.00 | 0.00 | 0.00 | 46 | 1001.5 |
| 20260504141004 | 16 | 290 | 1.6 | 6.4 | 0.00 | 0.00 | 0.00 | 54 | 1001.8 |
| 20260504140713 | 16 | 288 | 3.2 | 11.3 | 0.00 | 0.00 | 0.00 | 54 | 1001.8 |
| 20260504140214 | 16 | 280 | 6.4 | 14.5 | 0.00 | 0.00 | 0.00 | 53 | 1001.8 |
| 20260504130503 | 12 | 0 | 0.0 | 0.0 | 0.00 | 0.00 | 0.00 | 67 | 1001.7 |
| 20260504110503 | 10 | 0 | 0.0 | 0.0 | 0.00 | 0.00 | 0.00 | 69 | 1001.7 |
| 20260504100503 | 11 | 0 | 0.0 | 0.0 | 0.00 | 0.00 | 0.00 | 65 | 1001.8 |
| 20260504081503 | 11 | 0 | 0.0 | 0.0 | 0.00 | 0.00 | 0.00 | 66 | 1003.2 |
| 20260504081003 | 11 | 199 | 0.0 | 3.2 | 0.00 | 0.00 | 0.00 | 66 | 1003.2 |
| 20260504080713 | 11 | 199 | 0.0 | 3.2 | 0.00 | 0.00 | 0.00 | 68 | 1003.2 |
| 20260504050503 | 13 | 0 | 0.0 | 0.0 | 0.00 | 0.00 | 0.00 | 61 | 1005.8 |
| 20260504050004 | 13 | 0 | 0.0 | 0.0 | 0.00 | 0.00 | 0.00 | 61 | 1005.8 |
| 20260504045714 | 13 | 0 | 0.0 | 0.0 | 0.00 | 0.00 | 0.00 | 61 | 1005.9 |
| 20260504045003 | 14 | 0 | 0.0 | 0.0 | 0.00 | 0.00 | 0.00 | 60 | 1005.9 |
| 20260504044504 | 14 | 0 | 0.0 | 1.6 | 0.00 | 0.00 | 0.00 | 60 | 1006.0 |
| 20260504044003 | 14 | 0 | 0.0 | 1.6 | 0.00 | 0.00 | 0.00 | 59 | 1006.0 |
| 20260504043503 | 14 | 0 | 0.0 | 0.0 | 0.00 | 0.00 | 0.00 | 58 | 1006.1 |
| 20260504043003 | 15 | 200 | 0.0 | 3.2 | 0.00 | 0.00 | 0.00 | 58 | 1006.1 |
| 20260504042714 | 15 | 200 | 0.0 | 3.2 | 0.00 | 0.00 | 0.00 | 58 | 1006.2 |
| 20260504042003 | 15 | 200 | 0.0 | 1.6 | 0.00 | 0.00 | 0.00 | 56 | 1006.2 |
| 20260504041503 | 15 | 0 | 0.0 | 0.0 | 0.00 | 0.00 | 0.00 | 54 | 1006.2 |
| 20260504041003 | 15 | 0 | 0.0 | 0.0 | 0.00 | 0.00 | 0.00 | 54 | 1006.2 |
| 20260504040713 | 15 | 0 | 0.0 | 0.0 | 0.00 | 0.00 | 0.00 | 54 | 1006.3 |
| 20260504040003 | 15 | 0 | 0.0 | 0.0 | 0.00 | 0.00 | 0.00 | 54 | 1006.4 |
| 20260504035714 | 15 | 0 | 0.0 | 0.0 | 0.00 | 0.00 | 0.00 | 55 | 1006.5 |
| 20260504035003 | 15 | 0 | 0.0 | 0.0 | 0.00 | 0.00 | 0.00 | 53 | 1006.5 |
| 20260504034713 | 16 | 0 | 0.0 | 0.0 | 0.00 | 0.00 | 0.00 | 53 | 1006.5 |
| 20260504034004 | 16 | 0 | 0.0 | 0.0 | 0.00 | 0.00 | 0.00 | 53 | 1006.6 |
| 20260504033713 | 16 | 0 | 0.0 | 0.0 | 0.00 | 0.00 | 0.00 | 52 | 1006.7 |
| 20260504033003 | 16 | 0 | 0.0 | 0.0 | 0.00 | 0.00 | 0.00 | 52 | 1006.6 |
| 20260504032503 | 16 | 0 | 0.0 | 0.0 | 0.00 | 0.00 | 0.00 | 52 | 1006.7 |
| 20260504032003 | 16 | 0 | 0.0 | 0.0 | 0.00 | 0.00 | 0.00 | 51 | 1006.7 |
| 20260504031503 | 16 | 0 | 0.0 | 0.0 | 0.00 | 0.00 | 0.00 | 50 | 1006.7 |
| 20260504031003 | 16 | 0 | 0.0 | 0.0 | 0.00 | 0.00 | 0.00 | 51 | 1006.8 |
| 20260504030503 | 16 | 0 | 0.0 | 0.0 | 0.00 | 0.00 | 0.00 | 50 | 1006.9 |
| 20260504030003 | 16 | 0 | 0.0 | 0.0 | 0.00 | 0.00 | 0.00 | 49 | 1006.9 |
| 20260504025503 | 16 | 0 | 0.0 | 0.0 | 0.00 | 0.00 | 0.00 | 48 | 1006.9 |
| 20260504025003 | 16 | 0 | 0.0 | 0.0 | 0.00 | 0.00 | 0.00 | 48 | 1006.9 |
| 20260504024503 | 16 | 0 | 0.0 | 0.0 | 0.00 | 0.00 | 0.00 | 48 | 1006.9 |
| 20260504024003 | 17 | 0 | 0.0 | 0.0 | 0.00 | 0.00 | 0.00 | 48 | 1006.9 |
| 20260504023503 | 17 | 0 | 0.0 | 0.0 | 0.00 | 0.00 | 0.00 | 48 | 1006.9 |
| 20260504023003 | 17 | 0 | 0.0 | 0.0 | 0.00 | 0.00 | 0.00 | 48 | 1006.9 |
| 20260504022503 | 17 | 0 | 0.0 | 0.0 | 0.00 | 0.00 | 0.00 | 47 | 1007.0 |
| 20260504022214 | 17 | 0 | 0.0 | 0.0 | 0.00 | 0.00 | 0.00 | 47 | 1007.0 |
| 20260504021503 | 17 | 0 | 0.0 | 0.0 | 0.00 | 0.00 | 0.00 | 46 | 1007.0 |
| 20260504021003 | 17 | 0 | 0.0 | 0.0 | 0.00 | 0.00 | 0.00 | 44 | 1007.1 |
| 20260504020504 | 17 | 0 | 0.0 | 0.0 | 0.00 | 0.00 | 0.00 | 45 | 1007.0 |
| 20260504020003 | 18 | 0 | 0.0 | 0.0 | 0.00 | 0.00 | 0.00 | 44 | 1007.2 |
| 20260504015503 | 18 | 0 | 0.0 | 0.0 | 0.00 | 0.00 | 0.00 | 43 | 1007.2 |
| 20260504015003 | 18 | 0 | 0.0 | 0.0 | 0.00 | 0.00 | 0.00 | 42 | 1007.2 |
| 20260504014713 | 18 | 0 | 0.0 | 0.0 | 0.00 | 0.00 | 0.00 | 42 | 1007.2 |
| 20260504014214 | 18 | 0 | 0.0 | 0.0 | 0.00 | 0.00 | 0.00 | 42 | 1007.3 |
| 20260504013714 | 19 | 0 | 0.0 | 0.0 | 0.00 | 0.00 | 0.00 | 41 | 1007.2 |
| 20260504013003 | 20 | 0 | 0.0 | 0.0 | 0.00 | 0.00 | 0.00 | 40 | 1007.2 |
| 20260504012503 | 20 | 200 | 0.0 | 1.6 | 0.00 | 0.00 | 0.00 | 41 | 1007.1 |
| 20260504012003 | 20 | 200 | 1.6 | 4.8 | 0.00 | 0.00 | 0.00 | 40 | 1007.2 |
| 20260504011503 | 20 | 200 | 1.6 | 4.8 | 0.00 | 0.00 | 0.00 | 41 | 1007.2 |
| 20260504011003 | 21 | 200 | 1.6 | 3.2 | 0.00 | 0.00 | 0.00 | 38 | 1007.2 |
| 20260504010503 | 21 | 200 | 1.6 | 4.8 | 0.00 | 0.00 | 0.00 | 38 | 1007.3 |
| 20260504010003 | 21 | 200 | 1.6 | 4.8 | 0.00 | 0.00 | 0.00 | 38 | 1007.4 |
| 20260504005503 | 21 | 198 | 3.2 | 6.4 | 0.00 | 0.00 | 0.00 | 36 | 1007.4 |
| 20260504005004 | 21 | 197 | 3.2 | 6.4 | 0.00 | 0.00 | 0.00 | 36 | 1007.5 |
| 20260504004503 | 21 | 197 | 3.2 | 4.8 | 0.00 | 0.00 | 0.00 | 35 | 1007.5 |
| 20260504004003 | 22 | 196 | 3.2 | 6.4 | 0.00 | 0.00 | 0.00 | 35 | 1007.6 |
| 20260504003503 | 22 | 199 | 3.2 | 6.4 | 0.00 | 0.00 | 0.00 | 34 | 1007.6 |
| 20260504003004 | 22 | 210 | 3.2 | 12.9 | 0.00 | 0.00 | 0.00 | 35 | 1007.6 |
| 20260504002503 | 22 | 215 | 4.8 | 12.9 | 0.00 | 0.00 | 0.00 | 34 | 1007.6 |
| 20260504002003 | 22 | 214 | 3.2 | 9.7 | 0.00 | 0.00 | 0.00 | 34 | 1007.7 |
| 20260504001503 | 22 | 227 | 3.2 | 11.3 | 0.00 | 0.00 | 0.00 | 33 | 1007.7 |
| 20260504001003 | 22 | 238 | 3.2 | 11.3 | 0.00 | 0.00 | 0.00 | 34 | 1007.8 |
| 20260504000503 | 23 | 238 | 3.2 | 9.7 | 0.00 | 0.00 | 0.00 | 34 | 1007.9 |
| 20260504000003 | 23 | 253 | 4.8 | 11.3 | 0.00 | 0.00 | 0.00 | 32 | 1007.8 |
| 20260503235503 | 23 | 250 | 4.8 | 11.3 | 0.00 | 0.00 | 0.00 | 33 | 1007.8 |
| 20260503235003 | 23 | 231 | 3.2 | 9.7 | 0.00 | 0.00 | 0.00 | 32 | 1007.9 |
| 20260503234503 | 23 | 278 | 3.2 | 9.7 | 0.00 | 0.00 | 0.00 | 32 | 1007.9 |
| 20260503234213 | 23 | 320 | 3.2 | 9.7 | 0.00 | 0.00 | 0.00 | 32 | 1007.9 |
| 20260503233503 | 23 | 284 | 1.6 | 6.4 | 0.00 | 0.00 | 0.00 | 30 | 1007.9 |
| 20260503233004 | 23 | 277 | 1.6 | 6.4 | 0.00 | 0.00 | 0.00 | 32 | 1007.9 |
| 20260503232503 | 23 | 285 | 1.6 | 6.4 | 0.00 | 0.00 | 0.00 | 31 | 1007.9 |
| 20260503232003 | 23 | 269 | 1.6 | 6.4 | 0.00 | 0.00 | 0.00 | 33 | 1008.0 |
| 20260503231508 | 23 | 246 | 1.6 | 6.4 | 0.00 | 0.00 | 0.00 | 31 | 1008.1 |
| 20260503231003 | 23 | 238 | 3.2 | 11.3 | 0.00 | 0.00 | 0.00 | 29 | 1008.0 |
| 20260503230503 | 23 | 252 | 4.8 | 14.5 | 0.00 | 0.00 | 0.00 | 30 | 1008.1 |
| 20260503230004 | 23 | 257 | 4.8 | 14.5 | 0.00 | 0.00 | 0.00 | 31 | 1008.1 |
| 20260503225714 | 23 | 256 | 3.2 | 14.5 | 0.00 | 0.00 | 0.00 | 32 | 1008.1 |
| 20260503225003 | 23 | 279 | 3.2 | 12.9 | 0.00 | 0.00 | 0.00 | 31 | 1008.1 |
| 20260503224503 | 24 | 285 | 3.2 | 11.3 | 0.00 | 0.00 | 0.00 | 32 | 1008.2 |
| 20260503224003 | 24 | 249 | 1.6 | 11.3 | 0.00 | 0.00 | 0.00 | 31 | 1008.1 |
| 20260503223503 | 24 | 239 | 3.2 | 11.3 | 0.00 | 0.00 | 0.00 | 33 | 1008.1 |
| 20260503223003 | 24 | 239 | 3.2 | 11.3 | 0.00 | 0.00 | 0.00 | 32 | 1008.2 |
| 20260503222504 | 24 | 207 | 4.8 | 11.3 | 0.00 | 0.00 | 0.00 | 30 | 1008.2 |
| 20260503222003 | 24 | 206 | 4.8 | 12.9 | 0.00 | 0.00 | 0.00 | 29 | 1008.2 |
| 20260503221713 | 25 | 229 | 4.8 | 12.9 | 0.00 | 0.00 | 0.00 | 31 | 1008.3 |
| 20260503221214 | 25 | 256 | 4.8 | 14.5 | 0.00 | 0.00 | 0.00 | 29 | 1008.3 |
| 20260503220503 | 25 | 263 | 3.2 | 11.3 | 0.00 | 0.00 | 0.00 | 29 | 1008.3 |
| 20260503220003 | 25 | 271 | 3.2 | 12.9 | 0.00 | 0.00 | 0.00 | 32 | 1008.3 |
| 20260503215503 | 25 | 282 | 3.2 | 14.5 | 0.00 | 0.00 | 0.00 | 32 | 1008.3 |
| 20260503215003 | 24 | 282 | 3.2 | 14.5 | 0.00 | 0.00 | 0.00 | 31 | 1008.4 |
| 20260503214503 | 24 | 266 | 3.2 | 11.3 | 0.00 | 0.00 | 0.00 | 30 | 1008.7 |
| 20260503214003 | 24 | 280 | 3.2 | 11.3 | 0.00 | 0.00 | 0.00 | 33 | 1008.7 |
| 20260503213503 | 24 | 278 | 3.2 | 11.3 | 0.00 | 0.00 | 0.00 | 31 | 1008.8 |
| 20260503213214 | 24 | 278 | 3.2 | 11.3 | 0.00 | 0.00 | 0.00 | 30 | 1008.7 |
| 20260503212504 | 23 | 328 | 3.2 | 11.3 | 0.00 | 0.00 | 0.00 | 32 | 1008.9 |
| 20260503212003 | 23 | 277 | 4.8 | 11.3 | 0.00 | 0.00 | 0.00 | 32 | 1008.8 |
| 20260503211713 | 24 | 268 | 4.8 | 11.3 | 0.00 | 0.00 | 0.00 | 35 | 1008.9 |
| 20260503211003 | 24 | 264 | 6.4 | 16.1 | 0.00 | 0.00 | 0.00 | 29 | 1009.1 |
| 20260503210503 | 24 | 269 | 6.4 | 16.1 | 0.00 | 0.00 | 0.00 | 30 | 1009.1 |
| 20260503210004 | 24 | 278 | 4.8 | 14.5 | 0.00 | 0.00 | 0.00 | 30 | 1009.3 |